Regional Weather Roundup
Issued by NWS

Home | Current Version | Previous Version | Graphics & Text | Print | Product List | Glossary On
Versions: 1 2 3 4 5 6 7 8 9 10 11 12 13 14 15 16 17 18 19 20 21 22 23 24 25 26 27 28 29 30 31 32 33 34 35 36 37 38 39 40 41 42 43 44 45 46 47 48 49 50
000
ASUS45 KBOU 240607
RWRCO

WEATHER ROUNDUP FOR COLORADO
NATIONAL WEATHER SERVICE DENVER/BOULDER CO
1200 AM MDT FRI MAR 24 2017

NOTE: "FAIR" INDICATES FEW OR NO CLOUDS BELOW 12000 FEET WITH NO
SIGNIFICANT WEATHER AND/OR OBSTRUCTIONS TO VISIBILITY.

COZ001>005-013-030-031-240700-
...NORTHWEST COLORADO...

CITY           SKY/WX    TMP DP  RH WIND       PRES   REMARKS
CRAIG          FAIR      39  33  79 VRB5      29.88R
HAYDEN         MOCLDY    37  32  81 W13       29.86R
MEEKER         CLOUDY    42  34  73 NW5       29.88R
MOUNT WERNER   NOT AVBL
STEAMBOAT SPGS MOCLDY    39  33  78 E8        29.84R
WALDEN         NOT AVBL
$$

COZ006>008-011-240700-
...WEST CENTRAL VALLEYS...

CITY           SKY/WX    TMP DP  RH WIND       PRES   REMARKS
GRAND JUNCTION CLOUDY    45  38  76 N9        29.85R
MONTROSE       CLOUDY    41  37  86 NW23      29.82S
EAGLE          LGT RAIN  39  36  89 W10       29.84R
RIFLE          CLOUDY    46  36  68 W15       29.82S
DELTA          FAIR      47  37  69 W13G21    29.79S
NUCLA          CLOUDY    39  36  87 NW3       29.89R
$$

COZ017>023-064>068-240700-
...SOUTHWEST COLORADO...

CITY           SKY/WX    TMP DP  RH WIND       PRES   REMARKS
DURANGO        CLOUDY    35  32  88 W21G31    29.76S WCI  24
CORTEZ         CLOUDY    38  36  92 W6        29.87R
PAGOSA SPRINGS LGT SNOW  33  33 100 SW12      29.74S WCI  24
TELLURIDE      NOT AVBL
WOLF CREEK PAS LGT SNOW  19  19 100 W9        29.80R VSB 1   WCI   9
$$

COZ009-010-012-014-032>034-037-058>063-240700-
...CENTRAL COLORADO...

CITY           SKY/WX    TMP DP  RH WIND       PRES   REMARKS
ASPEN          LGT SNOW  33  32  96 N3        29.80S FOG
BUENA VISTA    LGT SNOW  37  31  79 NW22G32   29.72R
COPPER MTN     CLOUDY    28  23  80 MISG      29.84S
BERTHOUD PASS  CLOUDY    21  10  63 MISG      29.86F
COTTONWOOD PAS LGT SNOW  36  28  75 CALM      29.77R
GUNNISON       FAIR      36  30  79 W12       29.75R
KREMMLING      LGT RAIN  41  37  87 SW3       29.84F
LEADVILLE      LGT SNOW  28  25  88 N15G25    29.78R FOG     WCI  16
MONARCH PASS   FLURRIES  25  23  93 E5        29.88R WCI  19
SALIDA         CLOUDY    43  30  59 N22G28    29.75R
SUNLIGHT       SNOW      27  25  93 N6        29.92R VSB 1/2 WCI  20
WILKERSON PASS LGT SNOW  28  27  93 E8G22     29.80S WCI  20
$$

COZ069>075-240700-
...SAN LUIS VALLEY/SANGRE DE CRISTO MOUNTAINS...

CITY           SKY/WX    TMP DP  RH WIND       PRES   REMARKS
ALAMOSA        FLURRIES  34  32  92 W13       29.63F WCI  25
LA VETA PASS   NOT AVBL
SAGUACHE       CLOUDY    36  30  80 NW24G36   29.67R
$$

COZ035-036-038>040-240700-
...NORTHERN COLORADO FRONT RANGE...

CITY           SKY/WX    TMP DP  RH WIND       PRES   REMARKS
DENVER INTL AP CLOUDY    41  36  82 N21       29.78R
DMNS CITY PARK   N/A     41  39  91 NE13G23   29.79R
AURORA         LGT RAIN  40  39  99 N21G30    29.80R
FRONT RANGE AP TSTM      43  37  81 N20G32    29.80R
ERIE MUNI ARPT LGT RAIN  41  38  90 N18G26    29.79R
BOULDER MUN AP LGT RAIN  43  43 100 N9        29.78F
CENTENNIAL     LGT RAIN  40  37  89 N28G38    29.78R
BROOMFIELD     LGT RAIN  41  37  87 N21       29.78R
FORT COLLINS   LGT RAIN  41  36  82 N35G40    29.76F
LONGMONT       LGT RAIN  45  40  84 N7G18     29.80F
$$

COZ041-046-047-076>085-087-088-240700-
...PIKES PEAK/PALMER DIVIDE AND SOUTHERN FOOTHILLS...

CITY           SKY/WX    TMP DP  RH WIND       PRES   REMARKS
COLO. SPRINGS  LGT RAIN  42  36  79 N40G51    29.65R
A. F. ACADEMY  MIX PCPN  39  35  88 N24G33    29.70R
SCHRIEVER AFB  LGT RAIN  42  38  86 N40G54    29.64
ELLICOTT       LGT SNOW N/A N/A N/A NE43G52   29.61R
FALCON         MIX PCPN  37  36  95 N25G35    29.70R
FORT CARSON    MOCLDY    46  35  66 N36G53    29.62S
LIMON          LGT RAIN  44  42  93 N25G39    29.72R
MONUMENT HILL  LGT SNOW  34  32  93 N30G38    29.77S WCI  20
TRINIDAD       CLOUDY    48  26  42 NW10      29.44F
$$

COZ042>045-048>051-090-091-240700-
...NORTHEAST COLORADO...

CITY           SKY/WX    TMP DP  RH WIND       PRES   REMARKS
GREELEY ARPT   CLOUDY    43  34  70 N37       29.76F
AKRON          CLOUDY    45  39  79 N37G52    29.71R
BURLINGTON     CLOUDY    57  45  64 CALM      29.59R
WRAY           NOT AVBL
STERLING       DRIZZLE   46  43  87 NE25G39   29.73R
HOLYOKE        FAIR      48  43  81 NE31G38   29.74R
FORT MORGAN    MOCLDY    45  39  80 N28G39    29.73R
$$

COZ086-089-092>099-240700-
...SOUTHEAST COLORADO...

CITY           SKY/WX    TMP DP  RH WIND       PRES   REMARKS
PUEBLO         CLOUDY    54  39  57 N55G67    29.47R
LA JUNTA       FAIR      59  31  34 E14       29.36F
LAMAR          FAIR      60  47  61 E17G26    29.38F
SPRINGFIELD      N/A     49  27  42 S31G45    29.46F
$$



USA.gov is the U.S. government's official web portal to all federal, state and local government web resources and services.